Weather History for Mount Werner, CO

Change the Weather History Date:

Sunday, November 24, 2013

  Actual Average Record
Temperature  
Mean Temperature 30 °F -  
Max Temperature 32 °F - - ()
Min Temperature 28 °F - - ()
Degree Days  
Heating Degree Days 35    
Moisture  
Dew Point 26 °F    
Average Humidity 84    
Maximum Humidity 93    
Minimum Humidity 64    
Precipitation  
Precipitation 0.00 in - - ()
Sea Level Pressure  
Sea Level Pressure 30.16 in    
Wind  
Wind Speed 13 mph (WNW)    
Max Wind Speed 21 mph    
Max Gust Speed 26 mph    
Visibility 3 miles    
Events      
T = Trace of Precipitation, MM = Missing Value Source: NWS Daily Summary

Daily Weather History Graph

Daily Weather History Graph

Search for Another Location

Airport:

Trip Planner

Search our weather history database for the weather conditions in past years. The results will help you decide how hot, cold, wet, or windy it might be!

Date:

Astronomy

Nov. 24, 2013 Rise Set
Actual Time 7:03 AM MST 4:43 PM MST
Civil Twilight 6:33 AM MST 5:13 PM MST
Nautical Twilight 6:00 AM MST 5:46 PM MST
Astronomical Twilight 5:27 AM MST 6:19 PM MST
Moon 11:12 PM MST (11/24) 11:52 AM MST (11/24)
Length of Visible Light 10h 39m
Length of Day
9h 39m
Waning Gibbous, 60% of the Moon is Illuminated
Nov 24
Waning Gibbous
Nov 25
Last Quarter
Dec 2
New
Dec 9
First Quarter
Dec 17
Full

Hourly Weather History & Observations

Time (MST) Temp. Windchill Dew Point Humidity Pressure Visibility Wind Dir Wind Speed Gust Speed Precip Events Conditions
12:12 AM 32.0 °F 20.5 °F 21.2 °F 64% 30.20 in 10.0 mi ESE 18.4 mph - N/A   Overcast
12:32 AM 32.0 °F 20.1 °F 21.2 °F 64% 30.20 in 10.0 mi ESE 19.6 mph 24.2 mph N/A   Overcast
12:51 AM 32.0 °F 19.8 °F 21.2 °F 64% 30.20 in 10.0 mi ESE 20.7 mph 26.5 mph N/A   Overcast
1:11 AM 30.2 °F 18.1 °F 23.0 °F 75% 30.19 in 7.0 mi ESE 18.4 mph - N/A   Overcast
1:32 AM 30.2 °F 17.8 °F 23.0 °F 75% 30.19 in 10.0 mi ESE 19.6 mph 24.2 mph N/A   Overcast
1:52 AM 30.2 °F 19.8 °F 26.6 °F 86% 30.19 in 10.0 mi ESE 13.8 mph - N/A   Overcast
2:12 AM 30.2 °F 20.2 °F 26.6 °F 86% 30.19 in 10.0 mi ESE 12.7 mph - N/A   Mostly Cloudy
2:31 AM 30.2 °F 19.3 °F 26.6 °F 86% 30.19 in 0.2 mi ESE 15.0 mph - N/A   Overcast
2:52 AM 30.2 °F 19.3 °F 28.4 °F 93% 30.18 in 0.2 mi ESE 15.0 mph 21.9 mph N/A   Overcast
3:11 AM 30.2 °F 20.8 °F 28.4 °F 93% 30.18 in 0.5 mi SE 11.5 mph - N/A   Overcast
3:32 AM 32.0 °F 23.0 °F 28.4 °F 87% 30.17 in 10.0 mi SSE 11.5 mph - N/A   Scattered Clouds
3:52 AM 32.0 °F 24.8 °F 28.4 °F 87% 30.17 in 10.0 mi South 8.1 mph - N/A   Overcast
4:12 AM 30.2 °F 26.7 °F 28.4 °F 93% 30.18 in 10.0 mi SSW 3.5 mph - N/A   Overcast
4:32 AM 30.2 °F 26.7 °F 26.6 °F 86% 30.17 in 2.0 mi West 3.5 mph - N/A   Overcast
4:51 AM 30.2 °F 26.7 °F 26.6 °F 86% 30.17 in 1.2 mi West 3.5 mph - N/A   Overcast
5:12 AM 30.2 °F 24.3 °F 26.6 °F 86% 30.16 in 0.5 mi WNW 5.8 mph - N/A   Overcast
5:32 AM 30.2 °F 23.4 °F 26.6 °F 86% 30.16 in 0.2 mi WNW 6.9 mph - N/A   Overcast
5:52 AM 30.2 °F 22.6 °F 26.6 °F 86% 30.15 in 0.2 mi NW 8.1 mph - N/A   Overcast
6:12 AM 30.2 °F 23.4 °F 26.6 °F 86% 30.16 in 0.2 mi NW 6.9 mph - N/A   Overcast
6:33 AM 30.2 °F 24.3 °F 26.6 °F 86% 30.17 in 0.2 mi NW 5.8 mph - N/A   Overcast
6:53 AM 30.2 °F 22.6 °F 26.6 °F 86% 30.17 in 0.5 mi NNW 8.1 mph - N/A   Overcast
7:12 AM 30.2 °F 23.4 °F 26.6 °F 86% 30.17 in 1.0 mi NW 6.9 mph - N/A   Overcast
7:33 AM 30.2 °F 21.9 °F 26.6 °F 86% 30.17 in 1.5 mi NW 9.2 mph - N/A   Overcast
7:52 AM 30.2 °F 22.6 °F 26.6 °F 86% 30.17 in 0.5 mi WNW 8.1 mph - N/A   Overcast
8:12 AM 28.4 °F 19.1 °F 26.6 °F 93% 30.16 in 0.5 mi NW 10.4 mph - N/A   Overcast
8:32 AM 28.4 °F 19.1 °F 26.6 °F 93% 30.16 in 0.2 mi NW 10.4 mph - N/A   Overcast
8:52 AM - - - N/A% 30.16 in 0.2 mi WNW 9.2 mph - N/A   Overcast
9:13 AM - - - N/A% 30.16 in 0.2 mi WNW 9.2 mph - N/A   Overcast
9:33 AM - - - N/A% 30.15 in 0.2 mi WNW 12.7 mph - N/A   Overcast
9:53 AM - - - N/A% 30.14 in 0.2 mi NW 15.0 mph - N/A   Overcast
10:12 AM - - - N/A% 30.14 in 0.2 mi NW 13.8 mph - N/A   Overcast
10:32 AM - - - N/A% 30.14 in 0.2 mi WNW 12.7 mph - N/A   Overcast
10:52 AM - - - N/A% 30.13 in 0.2 mi WNW 11.5 mph - N/A   Overcast
11:12 AM - - - N/A% 30.13 in 0.2 mi WNW 12.7 mph - N/A   Overcast
11:33 AM - - - N/A% 30.12 in 0.2 mi NW 9.2 mph - N/A   Overcast
11:53 AM - - - N/A% 30.11 in 0.2 mi WNW 11.5 mph - N/A   Overcast
12:02 PM - - - N/A% 30.10 in 0.2 mi NW 11.5 mph - N/A   Overcast